Location: Aulon
(46.0819°N, 1.6895°E)
Time: 17:26:33
(UTC+00:00)

Daily predictions for brighter satellites

Satellite Brightness Start Highest point End
(mag) Time Altitude Azimuth Time Altitude Azimuth Time Altitude Azimuth
Cosmos 1844 Rocket 3.7 20:19:51 10° NNW 20:25:03 35° NE 20:30:13 10° ESE
Cosmos 1452 Rocket 3.8 20:20:19 10° S 20:25:20 46° ESE 20:30:22 10° NNE
SL-8 R/B 4.0 20:21:36 10° WNW 20:26:25 71° N 20:31:12 10° E
Cosmos 2056 Rocket 4.3 20:25:33 10° SW 20:30:41 58° WNW 20:35:56 10° NNE
NOSS 3-2 (A) 4.2 20:26:04 10° SW 20:31:38 58° NW 20:38:07 10° NE
NOSS 3-2 (C) 3.4 20:27:07 10° SW 20:32:45 88° NW 20:39:16 10° NE
ARIANE 5 R/B 3.6 20:29:37 10° SE 20:33:36 33° ENE 20:37:38 10° N
Cosmos 1850 Rocket 4.4 20:29:44 10° NNW 20:34:57 53° ENE 20:40:04 10° SE
FALCON 9 DEB 3.7 20:33:22 10° SSW 20:36:31 35° SE 20:39:41 10° ENE
ATLAS 3B R/B 3.7 20:32:41 10° SSE 20:37:24 21° ESE 20:42:13 10° ENE
Cosmos 1908 4.4 20:34:15 10° NNE 20:37:39 28° ENE 20:40:58 10° SE
Cosmos 2263 Rocket 3.1 20:33:05 10° NW 20:38:32 48° WSW 20:43:57 10° S
SPOT 1/Viking Rocket 3.7 20:34:26 10° SSE 20:39:31 66° ENE 20:44:38 10° N
Cosmos 1758 3.3 20:35:59 10° N 20:39:59 81° E 20:43:56 10° S
Landsat 7 3.9 20:37:57 10° S 20:42:42 81° WSW 20:47:30 10° NNW
Spot 2 Rocket 3.8 20:40:38 10° SE 20:45:32 53° ENE 20:50:28 10° N
CZ-2C R/B 3.9 20:41:05 10° NNE 20:45:50 64° ESE 20:50:34 10° S
Cosmos 1707 2.8 20:42:32 10° S 20:46:24 81° W 20:50:20 10° N
Okean 2 4.2 20:43:05 10° SSW 20:47:05 54° WNW 20:51:06 10° N
Lacrosse 5 rocket 2.1 20:44:14 10° S 20:47:15 24° SE 20:50:12 10° ENE
Okean 1 Rocket 3.7 20:43:18 10° NNW 20:47:36 57° W 20:51:53 10° S
Cosmos 2173 Rocket 4.4 20:41:59 10° N 20:48:12 50° ENE 20:54:11 11° SSE
ERS-1 Rocket 3.7 20:44:31 10° SE 20:49:06 39° ENE 20:53:47 10° N
In-Cosmos 22 4.1 20:44:05 10° S 20:49:19 69° E 20:54:36 10° NNE
Cosmos 1455 Rocket 3.5 20:45:25 10° N 20:49:46 49° ENE 20:53:47 12° SSE
MetOp-B 4.3 20:49:40 10° S 20:55:01 79° WSW 21:00:24 10° NNW
Meteor 2-20 Rocket 4.4 20:50:55 10° S 20:57:02 79° E 21:03:10 10° NNE
BREEZE-M DEB (TANK) 2.3 20:57:07 10° SSW 20:59:14 28° SE 21:02:29 10° ENE
Cosmos 2333 Rocket 3.3 20:55:52 11° SSE 21:00:24 26° ESE 21:05:05 10° NE
Cosmos 1727 Rocket 4.1 20:54:29 10° S 21:00:49 90° NE 21:07:08 10° N
USA 215 4.3 20:57:35 10° ENE 21:02:32 22° SE 21:07:26 10° S
Cosmos 1626 2.8 21:04:14 15° SSE 21:06:54 37° E 21:10:20 10° NNE
Cosmos 1953 2.4 21:02:56 10° N 21:07:01 70° E 21:10:22 15° SSE
SPOT 3 Rocket 4.3 21:02:22 10° S 21:07:21 50° W 21:12:25 10° NNW
Cosmos 1741 Rocket 4.0 21:02:28 10° NNW 21:07:45 88° WSW 21:12:22 14° SSE
SL-14 R/B 4.4 21:08:38 16° SE 21:11:03 29° E 21:14:32 10° NNE
Cosmos 2219 Rocket 3.2 21:07:37 14° SSE 21:11:28 27° ESE 21:16:10 10° NE
Cosmos 1844 3.9 21:06:41 10° NNW 21:12:13 62° ENE 21:16:41 16° SE
CENTAUR R/B 3.8 21:10:33 10° WSW 21:16:25 47° NW 21:23:26 10° NE
Cosmos 1802 Rocket 4.1 21:12:11 10° N 21:18:26 66° E 21:23:39 16° SSE
DNEPR-1 R/B 4.4 21:19:18 10° NNW 21:23:20 41° NE 21:26:37 15° ESE
KORONAS-FOTON 4.0 21:22:11 10° SSW 21:25:57 68° W 21:29:44 10° N
Cosmos 1025 Rocket 3.0 21:22:43 14° S 21:26:27 69° E 21:30:49 10° NNE
Cosmos 2237 Rocket 4.2 21:27:37 10° ESE 21:28:29 10° E 21:29:21 10° E
Aureole 1 Rocket 4.1 21:24:01 10° NNW 21:29:53 87° WSW 21:35:50 17° SSE
CARTOSAT-1 3.9 21:27:34 15° S 21:31:07 62° WSW 21:35:25 10° NNW
Resurs 01 Rocket 3.8 21:29:21 10° SW 21:32:41 21° W 21:36:02 10° NW
Cosmos 1459 Rocket 4.0 21:26:38 10° N 21:32:42 81° W 21:37:55 15° S
Cosmos 2360 Rocket 2.2 21:27:55 10° SSW 21:33:35 84° WNW 21:39:16 10° NNE
Cosmos 1461 3.0 21:29:29 10° NW 21:33:40 65° WSW 21:36:05 23° SSE
SL-16 R/B 3.5 21:28:19 10° SW 21:33:41 42° NW 21:39:05 10° NNE
Cosmos 2322 Rocket 3.1 21:30:10 10° SW 21:35:42 51° WNW 21:41:17 10° NNE
USA 267 4.4 21:31:15 10° E 21:37:18 42° NNE 21:43:21 10° NW
Cosmos 1975 Rocket 4.0 21:36:13 10° SSW 21:40:23 46° WNW 21:44:39 10° N
Cosmos 1900 4.3 21:37:00 10° NNW 21:41:57 86° ENE 21:44:58 23° SE
Cosmos 1674 3.8 21:38:57 10° SSW 21:42:29 41° WNW 21:46:02 10° N
Cosmos 1110 Rocket 4.1 21:39:00 10° SSW 21:44:10 76° WNW 21:49:24 10° NNE
SPOT 5 3.2 21:41:32 18° S 21:45:26 69° WSW 21:50:22 10° NNW
ATLAS CENTAUR R/B 1.7 21:41:20 10° NNW 21:45:39 66° NE 21:48:22 23° SE
Cosmos 968 Rocket 4.0 21:45:27 10° NNW 21:50:24 47° ENE 21:53:28 22° SE
COSMOS 2428 3.1 21:48:21 20° S 21:52:04 46° ESE 21:57:32 10° NE
Terra 1.8 21:49:22 22° S 21:52:26 81° WSW 21:57:14 10° NNW
Cosmos 1300 2.7 21:49:00 10° N 21:52:49 68° E 21:54:30 31° SSE
Cosmos 2322 3.7 21:48:35 12° SSW 21:53:49 68° ESE 21:59:27 10° NNE
FALCON 9 DEB 3.7 21:54:51 32° ESE 21:54:51 32° ESE 21:57:05 10° ENE
Cosmos 2061 Rocket 4.1 21:48:07 10° N 21:54:36 87° W 21:59:13 20° S
Cosmos 1864 Rocket 4.5 21:50:17 10° N 21:56:31 87° W 22:00:47 21° S
OPS 8737 4.4 21:53:20 10° SW 21:57:28 87° NW 22:00:38 10° NE
SL-24 R/B 4.3 21:53:51 10° N 21:58:42 70° E 22:01:29 25° S
Cosmos 2278 Rocket 3.3 21:54:51 10° NNW 22:00:02 35° NE 22:04:01 16° ESE
Cosmos 405 2.9 21:57:01 10° NNW 22:00:29 79° WSW 22:01:49 35° S
ATLAS CENTAUR R/B 4.4 21:59:32 16° ESE 22:00:58 17° E 22:06:16 10° ENE
Lacrosse 5 4.0 21:58:31 10° W 22:01:25 15° WSW 22:04:03 11° SSW
Cosmos 2123 Rocket 4.1 21:59:11 14° SSW 22:04:39 81° W 22:11:02 10° N
SL-8 R/B 3.9 22:04:15 10° WNW 22:08:55 53° SSW 22:10:57 31° SSE
Cosmos 1844 Rocket 3.5 22:03:43 10° NW 22:09:01 42° WSW 22:12:33 20° SSW
Cosmos 1340 3.1 22:06:53 20° SSW 22:09:17 59° WNW 22:13:02 10° N
ARIANE 5 R/B 4.3 22:06:43 12° SSW 22:10:04 27° W 22:13:54 10° NW
Cosmos 1346 Rocket 3.3 22:11:16 34° SE 22:12:22 42° E 22:16:12 10° NNE
FALCON 9 DEB 4.3 22:10:04 10° W 22:13:22 44° NNW 22:16:40 10° NE
H-2A R/B 3.6 22:09:32 10° N 22:13:37 72° WNW 22:16:08 22° SSW
Cosmos 2233 Rocket 3.9 22:07:28 10° N 22:13:39 81° E 22:17:18 26° SSE
FALCON 9 DEB 2.6 22:11:37 10° SW 22:14:42 78° SSE 22:17:48 10° ENE
GEOS 3 Rocket 4.1 22:11:18 20° ESE 22:14:59 60° NE 22:20:15 10° NNW
FALCON 9 DEB 2.7 22:18:01 54° SSW 22:18:30 65° SE 22:21:37 10° ENE
NOSS 0 Rocket 4.5 22:16:43 27° SSE 22:19:23 40° ESE 22:25:09 10° NE
SL-4 R/B 4.1 22:22:18 12° E 22:22:18 12° E 22:22:43 10° E
Meteor 2-5 Rocket 3.8 22:18:54 20° SSW 22:22:50 78° WNW 22:28:28 10° N
FALCON 9 DEB 2.7 22:21:32 14° WSW 22:24:09 88° SE 22:27:16 10° ENE
Lacrosse 5 rocket 2.0 22:22:35 10° WSW 22:26:08 47° NNW 22:29:37 10° NE
ATLAS 3B R/B 2.7 22:20:43 10° SW 22:27:16 82° NW 22:34:05 10° NE
Cosmos 1606 Rocket 3.8 22:23:11 10° N 22:27:38 61° E 22:29:16 36° SE
ERS-1 Rocket 4.5 22:24:30 14° SSW 22:27:59 29° W 22:32:20 10° NW
SJ 16-02 4.1 22:30:25 10° NE 22:30:39 10° NE 22:30:53 10° NE
Cosmos 1892 Rocket 4.3 22:29:33 32° SE 22:30:41 38° E 22:34:49 10° NNE
ALOS 2 3.8 22:32:40 23° ESE 22:34:28 32° ENE 22:38:22 10° N
Cosmos 1980 4.2 22:35:59 32° SSE 22:37:57 43° ESE 22:43:18 10° NE
Cosmos 1943 Rocket 4.4 22:35:36 10° N 22:39:13 17° NE 22:42:50 10° E
Spot 4 4.0 22:39:08 35° SE 22:41:05 66° ENE 22:45:49 10° N
Cosmos 1503 Rocket 4.4 22:35:59 10° NNW 22:41:19 58° ENE 22:43:52 30° SE
Cosmos 2333 Rocket 2.9 22:38:42 10° SW 22:44:20 54° WNW 22:49:57 10° NNE
USA 215 3.1 22:39:39 10° NE 22:46:13 77° SE 22:52:45 10° SW
Meteor 2-10 Rocket 3.7 22:47:43 10° NNW 22:52:45 61° W 22:54:49 33° SSW
Cosmos 2219 Rocket 3.0 22:49:35 10° SW 22:55:07 51° WNW 23:00:40 10° NNE
Cosmos 1464 Rocket 4.1 22:52:37 10° N 22:58:59 68° E 23:02:03 32° SSE
Cosmos 1867 3.6 22:54:16 10° NW 22:59:44 70° WSW 23:01:49 38° SSE
Cosmos 1607 4.1 22:54:59 10° NW 23:01:26 74° NE 23:05:04 27° SE
Cosmos 389 Rocket 3.1 23:00:22 10° NNW 23:03:38 42° W 23:04:01 40° WSW
Iridium 2 3.8 23:05:20 51° SW 23:06:06 67° W 23:09:51 10° N
COBE Rocket 3.9 23:04:31 40° SSE 23:06:24 83° ENE 23:11:23 10° N
SL-16 R/B 3.4 23:06:17 23° ESE 23:07:26 25° ESE 23:11:56 10° NE
Cosmos 2237 Rocket 2.1 23:09:08 36° S 23:11:29 73° ESE 23:17:07 10° NNE
Cosmos 2228 4.0 23:08:15 10° NNW 23:12:20 37° W 23:13:45 29° SW
Meteor 1-4 Rocket 3.6 23:13:10 10° N 23:16:20 32° ENE 23:16:45 31° E
USA 267 3.2 23:14:47 18° ESE 23:19:54 86° NE 23:26:29 10° NW
Cosmos 1455 2.4 23:16:18 10° NNW 23:20:04 56° W 23:20:37 50° SW
Cosmos 2369 Rocket 4.4 23:17:39 10° N 23:21:49 20° NE 23:25:57 10° E
Cosmos 1184 Rocket 2.8 23:22:45 72° W 23:22:46 72° WNW 23:26:01 10° N
ATLAS CENTAUR R/B 3.4 23:21:14 10° WNW 23:24:09 17° WSW 23:24:30 17° WSW
Okean 1-7 Rocket 3.5 23:27:36 51° S 23:28:43 88° ESE 23:33:12 10° N
FALCON 9 DEB 4.3 23:26:54 10° W 23:29:52 38° NNW 23:32:51 10° NE
Cosmos 1777 Rocket 4.2 23:25:55 10° NNW 23:31:12 65° ENE 23:33:25 34° SE
Cosmos 2034 Rocket 3.9 23:26:52 10° N 23:33:06 85° E 23:35:44 37° SSE
Meteor 1-21 Rocket 4.2 23:33:20 37° SSW 23:35:39 82° W 23:41:25 10° N
COSMOS 2428 4.2 23:31:22 10° WSW 23:36:30 33° NW 23:41:41 10° NNE
Cosmos 1354 Rocket 4.3 23:32:37 10° NNW 23:37:51 58° WSW 23:39:29 40° SSW
Cosmos 192 4.4 23:38:55 39° SW 23:40:46 75° WNW 23:45:42 10° NNE
Cosmos 2297 4.2 23:37:42 10° NNW 23:43:14 54° ENE 23:46:30 24° SE
Cosmos 2058 Rocket 3.7 23:39:20 10° NNW 23:43:35 45° W 23:44:34 38° SW
Cosmos 1812 Rocket 4.0 23:39:52 10° N 23:44:08 52° ENE 23:45:17 40° SE
Cosmos 2278 Rocket 2.8 23:38:53 10° NW 23:44:11 42° WSW 23:45:51 34° SSW
